Tracking 19145 objects as of 25-Apr-2018
HD Live streaming from Space Station
objects crossing your sky now

FENGYUN 1C DEB

Track FENGYUN 1C DEB now!
10-day predictions


NORAD ID: 30657
Int'l Code: 1999-025APP
Perigee: 823.1 km
Apogee: 859.2 km
Inclination: 99.0 °
Period: 101.6 minutes
Semi major axis: 7212 km
RCS: 0.026 m2 (small)
Launch date: May 10, 1999
Source: People's Republic of China (PRC)
Launch site: Taiyaun Space Center, China (TSC)

Note: This is SATELLITE DEBRIS
aabbcc
Your satellite tracking list
Your tracking list is empty




NASA's NSSDC Master Catalog

Two Line Element Set (TLE):
1 30657U 99025APP 18114.60806927 +.00000744 +00000-0 +38863-3 0  9995
2 30657 099.0035 145.0406 0025033 093.1790 030.6944 14.17436686575763
Source of the keplerian elements: AFSPC